Home   Weather   Málaga   Past weeks

Flag for Spain Past Weather in Málaga, Spain — Yesterday and Last 2 Weeks

Now
68 °F

Passing clouds.


Feels Like: 68 °F
Forecast: 52 / 74 °F
Wind: 9 mph from Southeast

Location: Malaga / Aeropuerto

Current Time: Apr 24, 2017 at 3:37:17 pm

Latest Report: Apr 24, 2017 at 3:00 pm


Visibility: N/A

Pressure: 30.04 "Hg

Humidity: 49%

Dew Point: 48 °F

Location of MálagaLocation

Past Weather in Málaga — Graph

°F

Málaga Temperature Yesterday

Maximum temperature yesterday: 70 °F (at 12:00 pm)
Minimum temperature yesterday: 57 °F (at 6:00 am)
Average temperature yesterday: 63 °F

High & Low Weather Summary for the Past Weeks

 TemperatureHumidityPressure
High88 °F (Apr 15, 5:00 pm)100% (Apr 10, 3:30 am)30.24 "Hg (Apr 10, 3:30 am)
Low46 °F (Apr 11, 6:00 am)20% (Apr 13, 5:30 pm)29.89 "Hg (Apr 18, 4:00 pm)
Average64 °F68%30.09 "Hg
* Reported Apr 9 2:00 pm — Apr 24 2:00 pm, Málaga, Weather by CustomWeather, © 2017

Note: Actual official high and low records may vary slightly from our data, if they occured in-between our weather recording intervals... More about our weather records

Advertising

Málaga Weather History for the Previous 24 Hours

Scroll right to see more
 ConditionsComfort  
Time TempWeatherWind HumidityBarometerVisibility
2:00 pm
Mon, Apr 24
66 °FPassing clouds.12 mph60%30.04 "HgN/A
1:30 pm66 °FPassing clouds.10 mph52%30.04 "HgN/A
1:00 pm70 °FPassing clouds.7 mph38%30.04 "HgN/A
12:30 pm68 °FPassing clouds.8 mph49%30.04 "HgN/A
12:00 pm68 °FSunny.9 mph49%30.04 "Hg10 mi
11:30 am68 °FSunny.2 mph43%30.04 "Hg10 mi
11:00 am64 °FPassing clouds.6 mph64%30.04 "HgN/A
10:30 am61 °FSunny.7 mph72%30.04 "Hg10 mi
10:00 am59 °FPassing clouds.8 mph77%30.04 "HgN/A
9:30 am57 °FSunny.8 mph77%30.04 "Hg10 mi
9:00 am55 °FSunny.7 mph82%30.01 "Hg10 mi
8:30 am54 °FSunny.7 mph88%30.04 "Hg10 mi
8:00 am52 °FSunny.7 mph88%30.04 "Hg10 mi
7:30 am52 °FClear.6 mph94%30.01 "Hg10 mi
7:00 am52 °FClear.7 mph88%30.01 "Hg10 mi
6:30 am52 °FClear.7 mph88%30.01 "Hg10 mi
5:30 am52 °FClear.8 mph88%30.01 "Hg10 mi
5:00 am52 °FClear.7 mph88%30.01 "Hg10 mi
4:30 am54 °FClear.7 mph88%30.04 "Hg10 mi
4:00 am55 °FClear.8 mph82%30.04 "Hg10 mi
3:30 am55 °FClear.7 mph82%30.04 "Hg10 mi
3:00 am57 °FClear.5 mph77%30.07 "Hg10 mi
2:30 am55 °FClear.6 mph82%30.07 "Hg10 mi
2:00 am57 °FClear.No wind88%30.07 "Hg10 mi
1:30 am59 °FClear.1 mph82%30.07 "Hg10 mi
1:00 am59 °FClear.2 mph82%30.07 "Hg10 mi
12:30 am59 °FClear.3 mph82%30.07 "Hg10 mi
12:00 am59 °FClear.3 mph82%30.07 "Hg10 mi
11:30 pm
Sun, Apr 23
61 °FClear.3 mph77%30.07 "Hg10 mi
10:30 pm61 °FClear.3 mph72%30.04 "Hg10 mi
9:30 pm61 °FClear.6 mph72%30.01 "Hg10 mi
9:00 pm63 °FClear.6 mph68%30.01 "Hg10 mi
8:30 pm63 °FPassing clouds.6 mph64%30.01 "HgN/A
8:00 pm64 °FPassing clouds.5 mph60%30.01 "HgN/A
7:30 pm64 °FPassing clouds.6 mph56%30.01 "HgN/A
7:00 pm66 °FPassing clouds.7 mph52%30.01 "HgN/A
6:30 pm66 °FPassing clouds.8 mph52%30.01 "HgN/A
6:00 pm66 °FPassing clouds.8 mph49%30.01 "HgN/A
5:30 pm68 °FPassing clouds.9 mph46%30.01 "HgN/A
5:00 pm68 °FPassing clouds.7 mph46%30.04 "HgN/A
4:30 pm68 °FPassing clouds.6 mph43%30.04 "HgN/A
4:00 pm70 °FSunny.6 mph40%30.04 "Hg10 mi
3:00 pm70 °FPassing clouds.7 mph43%30.07 "HgN/A
Weather by CustomWeather, © 2017

See weather overviewHow to use our weather pages